Wetbulb
47.70 47.45 47.47 47.66 47.66 47.37 47.23 46.89 46.53 45.98 44.89 44.74 43.70 43.55 43.26 42.43 42.56 40.98 37.95 39.94 34.63 28.82 28.46 30.52 29.94 24.26 24.72 23.21 16.31 18.31 19.20 17.58 18.78 15.63 12.37 9.86 10.85 13.01 12.66 15.29 13.91 9.86 2.62 5.39 8.62 6.70 3.26 21.06 19.84 13.19 19.75 23.30 22.81 23.08
47.58 47.26 47.35 47.54 47.48 47.37 47.11 46.72 46.50 45.95 44.94 44.59 43.68 43.64 43.27 42.60 42.76 42.14 35.52 39.65 40.05 32.09 27.06 32.67 33.35 34.04 32.09 29.94 24.65 21.16 19.40 15.44 19.17 11.75 12.02 11.39 10.41 13.51 12.48 8.06 19.42 11.82 16.42 11.97 11.97 9.73 19.48 21.24 16.71 18.84 19.02 20.61 22.43 23.47
47.36 47.37 47.15 47.34 47.21 47.28 47.05 46.51 46.34 45.83 44.84 44.37 43.60 43.46 43.02 42.67 42.54 41.22 36.58 36.67 33.44 26.34 24.76 25.66 24.88 29.76 33.87 32.82 33.29 20.19 20.62 25.84 21.43 23.09 21.50 14.46 10.80 15.59 10.98 13.56 15.60 19.37 21.76 16.86 16.89 19.83 21.13 22.17 22.71 22.54 23.73 23.28 24.89 26.19
46.74 46.40 46.72 46.92 46.66 46.48 46.43 46.55 46.15 45.53 44.64 44.10 43.44 43.21 42.64 42.73 42.54 40.30 35.32 35.95 32.51 25.80 15.97 20.08 30.79 25.45 31.59 32.39 31.72 31.41 27.84 25.35 23.10 22.18 19.90 16.22 13.84 21.03 16.07 17.39 16.93 18.99 18.45 15.05 16.53 20.43 21.22 22.29 22.70 24.24 25.53 25.67 26.04 25.91
46.18 46.08 46.07 45.94 45.85 45.87 45.88 45.77 45.44 45.11 44.80 43.71 43.13 42.75 42.37 42.57 42.34 39.61 37.41 36.30 36.01 26.85 16.78 18.70 24.41 27.39 29.03 28.46 27.53 29.03 28.90 25.94 23.13 20.74 18.34 15.24 19.29 19.86 18.23 16.73 14.34 19.97 17.79 14.83 13.56 21.42 20.66 21.92 23.72 25.99 24.35 24.67 25.36 24.60
46.16 46.33 45.89 45.68 45.46 45.36 45.13 45.20 44.87 44.74 44.34 43.58 42.81 42.30 42.45 42.31 40.97 35.93 27.52 33.87 36.81 35.17 23.90 12.98 25.36 17.36 20.20 23.81 24.22 22.51 26.22 25.76 24.83 20.72 14.84 16.89 22.08 19.93 12.79 10.63 19.07 21.92 22.55 23.09 20.82 24.52 24.21 24.82 25.15 25.01 24.41 24.26 24.59 22.99
45.88 45.44 45.37 45.22 45.01 45.08 45.11 44.87 44.20 43.88 43.36 42.65 42.24 42.21 42.35 42.18 37.34 30.81 26.33 32.30 36.38 33.71 19.42 13.81 14.18 19.37 17.18 16.13 18.55 22.60 25.38 24.21 23.45 21.12 14.95 18.68 18.89 21.12 16.65 11.64 19.26 19.81 15.70 18.97 15.44 17.86 20.50 21.31 17.45 19.56 21.92 22.09 21.10 19.66
45.28 45.18 45.07 45.06 45.02 44.71 44.68 44.38 43.76 43.29 42.48 41.99 41.85 41.96 41.97 41.63 37.80 32.48 33.36 37.83 35.80 28.78 24.90 9.82 11.48 14.37 16.75 15.44 13.63 21.47 18.64 22.66 21.83 17.14 16.22 12.72 15.39 15.24 9.65 8.99 11.02 11.52 12.45 15.28 11.68 11.31 12.47 14.30 14.79 13.62 12.43 12.65 10.66 12.38
44.95 44.79 44.89 44.79 44.58 44.29 44.24 44.00 43.26 42.26 41.64 41.67 41.49 39.87 34.50 30.76 29.96 29.47 35.85 35.45 32.88 28.14 12.97 12.74 6.52 4.90 15.19 14.95 15.34 12.58 17.66 11.09 15.53 13.58 15.30 16.45 10.52 9.85 5.45 8.11 6.63 7.14 4.18 5.81 5.14 5.03 3.06 3.89 5.19 5.02 4.39 4.90 3.76 6.52
44.61 44.59 44.71 44.67 44.01 43.67 43.97 43.53 42.18 41.50 41.76 40.03 34.76 30.71 23.53 26.23 33.12 32.01 27.60 22.32 18.69 21.04 21.38 11.08 12.52 8.42 17.28 13.29 9.31 10.57 14.03 7.97 4.97 12.09 16.18 10.24 10.17 10.05 11.35 11.72 11.04 10.30 5.99 1.77 -2.00 2.59 3.38 2.16 1.26 0.80 -0.46 -0.88 -0.56 1.99
44.12 44.11 44.05 43.94 43.85 43.88 43.67 42.30 41.80 41.21 38.09 32.70 27.49 21.50 24.32 28.33 26.39 20.76 11.96 8.53 9.37 5.19 10.95 12.46 11.91 9.74 17.78 8.46 10.84 18.23 10.18 10.77 7.03 7.47 9.07 6.00 5.86 8.19 10.69 9.84 11.30 11.52 9.84 6.64 4.54 4.47 2.94 -1.69 -1.55 -0.95 1.05 -0.80 -1.97 -0.76
43.91 43.84 43.77 43.73 43.34 43.60 42.34 42.38 40.29 33.50 31.85 30.83 25.29 24.91 23.30 19.98 15.96 9.10 2.83 -0.96 -1.46 3.29 8.29 7.51 10.19 11.34 12.85 17.42 13.57 14.21 11.43 12.16 3.84 10.24 7.52 2.96 4.92 7.96 6.54 5.77 7.43 5.71 4.89 4.06 0.55 0.52 1.11 0.68 -2.20 -2.00 0.79 1.43 2.48 3.55
43.70 43.57 43.63 43.45 43.66 42.59 42.06 40.83 37.41 34.31 31.24 28.73 23.04 16.49 16.83 9.26 4.71 -0.55 -5.97 -0.92 -2.65 3.36 3.83 3.92 5.14 8.90 13.81 15.04 13.97 14.22 10.00 7.17 10.25 7.50 4.12 3.53 6.41 6.96 5.83 4.46 2.73 0.37 -0.27 0.38 0.72 -3.56 -4.84 -1.97 -2.88 -5.72 0.68 1.83 2.66 3.91
43.40 43.43 43.42 43.26 42.41 42.18 40.96 38.16 35.83 33.39 29.86 22.39 15.71 7.29 9.46 0.84 1.50 5.52 5.84 7.33 8.54 7.18 5.70 7.37 6.56 11.80 14.13 12.54 13.86 9.65 11.47 13.39 6.36 2.04 2.28 4.54 4.62 4.97 5.98 6.07 4.14 1.72 -2.33 -2.99 -3.42 -6.71 -6.24 -6.63 -1.92 -0.46 0.51 1.66 2.54 2.46
43.21 43.27 43.21 41.77 41.81 40.40 38.38 36.41 33.51 29.07 25.74 16.52 16.22 7.52 3.11 6.88 5.42 1.98 -2.45 0.38 3.88 3.27 6.08 6.21 7.44 10.95 9.36 9.61 12.28 11.54 7.93 4.77 3.89 0.07 4.13 4.15 4.78 5.28 4.47 4.38 3.13 -1.40 -2.04 -7.90 -9.90 -9.24 -5.66 -2.59 -0.48 0.64 0.27 0.64 0.46 0.96
43.27 41.39 38.88 41.33 40.92 38.63 35.91 33.58 29.40 25.17 19.42 14.91 11.37 8.77 -0.45 3.30 4.76 -0.28 0.17 1.82 7.29 8.61 8.05 8.41 5.34 4.46 7.38 9.45 7.92 6.52 5.46 -0.08 0.46 2.72 3.41 4.26 3.54 3.37 3.03 0.05 -5.19 -9.66 -10.29 -11.01 -11.08 -7.55 -1.53 -0.59 -0.39 0.25 -0.01 -1.24 -1.66 -1.81
38.67 35.13 41.09 41.05 37.97 35.92 35.69 29.07 26.25 18.36 18.10 11.43 10.08 4.72 7.57 6.71 7.81 6.72 5.60 6.58 13.24 7.44 6.05 8.80 3.39 5.27 14.60 9.54 7.26 2.37 -0.85 1.07 2.21 1.83 3.13 3.28 2.36 2.47 -1.62 -6.60 -10.87 -13.01 -12.64 -12.60 -11.58 -3.05 -0.96 1.25 1.46 0.07 -2.73 -2.18 -1.59 -1.59
34.79 39.16 38.48 37.23 33.80 31.53 24.61 23.63 19.27 16.09 10.33 9.82 8.92 4.42 3.69 4.92 5.48 3.84 3.59 8.42 8.83 10.23 11.17 6.78 11.53 6.49 7.64 1.61 2.05 2.92 2.25 2.29 2.46 1.98 1.82 1.91 3.01 -2.38 -6.42 -5.91 -11.89 -10.06 -8.50 -5.05 -2.35 0.13 0.55 1.51 0.72 -0.45 -0.44 -0.06 -0.32 -0.78
37.43 35.84 36.41 36.34 32.91 27.50 22.47 18.25 17.31 11.23 6.13 5.77 3.83 4.68 3.77 1.65 0.73 0.95 2.04 5.88 6.84 10.85 7.18 9.86 9.33 5.51 2.96 3.76 0.85 -0.25 -0.52 -0.77 -1.73 -0.79 0.67 2.35 1.84 -0.39 -0.13 -0.46 -0.80 -3.51 -3.30 -3.06 -1.22 -0.65 0.36 0.32 -0.02 0.52 0.34 0.56 -1.00 0.16
37.86 36.91 35.32 34.03 32.55 22.98 16.19 13.00 12.46 10.20 6.15 5.31 3.83 3.67 2.99 1.92 0.28 0.24 2.63 6.06 10.42 9.85 6.95 5.04 1.61 1.97 1.50 1.56 1.73 0.47 0.78 1.38 -1.05 -3.64 -2.80 0.12 1.42 1.25 0.46 -0.61 -0.57 0.01 0.57 0.68 0.79 1.35 1.30 -0.22 0.24 0.05 -0.01 -0.06 -1.58 -2.67
33.56 32.99 32.31 28.65 22.42 19.32 14.43 8.15 4.72 2.72 2.62 3.58 0.02 2.09 1.58 2.07 0.45 0.72 3.88 5.15 3.30 -2.16 2.19 1.48 2.02 0.96 2.03 1.78 2.15 2.53 1.28 0.68 -2.15 -1.76 -2.55 -2.74 0.43 1.26 0.99 1.17 1.45 0.91 0.13 -0.16 -0.81 -1.14 -1.09 -1.89 -0.85 -0.40 -1.53 -2.51 -2.40 -2.83
30.67 31.97 25.98 25.68 18.70 13.28 8.84 5.39 5.46 2.93 3.65 -0.52 0.75 -1.08 -1.14 -1.03 -1.57 -0.12 2.22 1.09 -2.11 -3.75 -3.58 -0.84 -1.49 -1.42 -0.90 -1.28 -0.54 0.72 0.08 -0.70 0.73 1.05 1.66 1.55 -2.00 -1.57 -1.27 0.04 -0.24 -1.29 -1.18 -0.66 -0.66 -1.72 -1.87 -0.94 -0.63 -1.68 -3.18 -4.65 -5.41 -6.63
28.55 25.32 18.89 16.56 11.80 6.63 3.54 6.20 2.37 -0.59 0.63 -1.26 -2.50 -0.36 -3.50 -4.26 -2.71 0.51 -3.41 -3.82 -4.10 -4.20 -2.12 -2.89 -2.44 -0.54 -0.43 1.87 3.04 1.59 -0.20 -1.60 -0.46 -1.53 -1.52 -0.37 -1.88 -2.01 -0.62 -1.10 0.21 -0.40 -1.61 -1.28 0.11 -1.77 -2.67 -0.84 -2.29 -5.03 -7.96 -10.69 -14.48 -14.20
20.71 10.76 6.95 3.44 3.61 -0.50 -0.57 -3.41 -1.77 -2.27 -3.16 -3.51 -3.19 -4.76 -5.74 -6.92 -6.21 -0.41 -4.33 -3.97 -5.13 -2.08 -0.24 -2.90 -2.41 -0.45 -0.32 0.34 -0.39 -0.12 -0.33 0.12 0.58 1.29 -1.02 -2.02 -0.41 -1.27 -0.44 -0.64 -0.23 -0.32 0.05 -0.18 -2.85 -6.15 -10.24 -13.18 -10.72 -14.09 -16.94 -19.69 -21.08 -21.15
12.33 4.47 3.54 0.71 0.87 0.05 -4.53 -6.65 -7.65 -3.95 -6.20 -10.80 -7.05 -6.54 -7.11 -12.28 -5.42 -8.11 -5.63 -7.34 -6.53 -0.74 -1.34 -2.54 -2.19 -2.68 -5.76 -3.81 -1.18 -0.52 0.29 -1.75 -2.65 -1.61 -3.35 -4.18 -3.88 1.15 -1.63 -1.79 -5.20 -9.34 -7.81 -9.22 -11.83 -14.59 -15.18 -15.63 -16.12 -17.80 -17.44 -20.88 -20.08 -19.56
0.19 -4.50 -1.73 -5.20 -3.31 -0.48 -6.08 -5.83 -8.28 -7.29 -9.86 -8.54 -8.73 -11.07 -12.43 -7.66 -7.25 -6.60 -7.65 -9.12 -6.81 -2.25 -3.58 -4.89 -8.26 -7.22 -4.23 -1.32 -2.70 -2.71 -3.90 -4.61 -5.47 -4.33 -10.44 -12.60 -14.57 -15.90 -13.70 -12.71 -13.41 -12.28 -12.80 -18.06 -16.31 -18.48 -19.23 -19.21 -21.74 -21.76 -22.72 -23.02 -18.82 -21.62
-1.82 -4.14 -7.90 -6.02 -5.78 -7.71 -7.86 -8.81 -8.90 -8.57 -9.42 -8.05 -9.79 -9.73 -8.96 -7.94 -8.67 -7.74 -9.50 -6.77 -3.96 -1.55 -2.64 -2.72 -5.29 -7.65 -7.08 -4.89 -4.74 -4.82 -7.14 -15.45 -16.01 -16.08 -19.03 -21.39 -21.72 -22.95 -21.97 -18.85 -17.56 -17.08 -18.60 -20.75 -21.46 -20.97 -21.34 -22.09 -21.84 -22.57 -23.78 -24.85 -26.77 -24.85
-6.81 -10.02 -5.55 -8.88 -12.04 -13.24 -12.44 -12.92 -11.67 -11.20 -11.11 -14.19 -12.68 -11.00 -7.68 -7.59 -6.54 -11.05 -9.78 -6.33 -5.63 -4.46 -4.64 -5.75 -5.79 -4.46 -4.38 -5.80 -6.98 -13.68 -16.52 -17.35 -18.32 -21.49 -20.92 -20.22 -22.15 -22.37 -23.88 -23.41 -21.29 -3.59 -17.04 -17.97 -16.78 -17.71 -20.88 -21.09 -22.03 -22.01 -21.68 -21.08 -21.90 -23.46
-8.05 -10.05 -10.49 -13.76 -16.51 -15.12 -17.29 -14.45 -13.72 -14.12 -13.99 -15.93 -11.11 -11.54 -12.44 -14.08 -17.01 -15.65 -12.87 -10.40 -7.42 -6.34 -5.54 -7.95 -7.74 -8.25 -8.64 -11.41 -15.35 -18.60 -20.68 -21.73 -16.51 -15.69 -17.37 -18.22 -19.14 -15.43 -20.10 -21.30 -20.79 -18.89 -18.20 -17.85 -4.31 -13.37 -18.34 -20.13 -21.17 -21.41 -21.81 -20.83 -21.19 -24.20
-11.19 -13.69 -16.06 -20.96 -16.34 -16.39 -17.41 -18.45 -17.24 -20.34 -21.66 -21.69 -21.53 -17.53 -16.26 -16.06 -17.70 -20.46 -17.37 -15.38 -10.14 -7.11 -8.06 -10.20 -10.42 -12.71 -13.47 -14.79 -14.89 -17.16 -26.07 -28.01 -26.99 -20.01 -17.65 -16.67 -17.78 -22.59 -23.98 -23.22 -21.62 -21.72 -19.78 -19.96 -14.38 -14.63 -5.88 -14.83 -13.14 -19.83 -19.58 -20.22 -20.68 -21.07
-11.82 -15.96 -17.63 -20.64 -20.35 -20.23 -20.03 -21.64 -23.82 -24.00 -23.15 -22.19 -24.98 -18.42 -17.75 -20.28 -17.06 -19.19 -17.76 -17.13 -12.48 -8.02 -6.27 -11.52 -12.68 -14.93 -15.61 -16.06 -22.91 -23.85 -17.92 -24.51 -26.59 -28.08 -29.82 -28.48 -25.79 -25.87 -24.78 -22.64 -21.99 -23.00 -22.59 -20.22 -18.47 -19.56 -17.98 -17.41 -19.87 -21.35 -20.95 -20.93 -19.92 -21.91
-14.11 -19.23 -18.24 -17.91 -17.89 -20.06 -22.59 -21.24 -21.39 -19.68 -20.52 -18.15 -19.10 -21.89 -19.30 -17.03 -15.44 -16.28 -17.13 -17.07 -9.71 -7.17 -6.93 -12.80 -15.81 -16.98 -16.68 -19.72 -21.68 -22.95 -16.54 -19.44 -23.25 -21.82 -23.52 -20.83 -23.72 -24.04 -23.67 -22.48 -22.63 -22.60 -19.95 -16.42 -17.61 -17.79 -18.45 -20.50 -21.28 -21.21 -21.31 -17.69 -17.86 -19.08
-10.24 -17.60 -22.01 -22.23 -19.42 -16.99 -19.69 -18.22 -19.84 -17.96 -19.04 -21.17 -21.57 -26.16 -24.51 -19.59 -13.42 -13.65 -15.62 -16.00 -12.04 -13.27 -10.05 -9.79 -12.98 -15.81 -19.25 -23.80 -26.05 -26.38 -21.50 -26.73 -24.53 -8.35 -5.80 -5.85 -9.52 -11.80 -22.06 -23.90 -23.19 -21.09 -18.03 -17.46 -17.96 -18.08 -18.63 -21.06 -19.24 -18.41 -16.04 -16.96 -18.44 -19.25
MSLP
1004.72 1006.12 1007.34 1008.15 1009.47 1010.50 1011.52 1012.85 1013.79 1014.53 1015.26 1016.21 1016.83 1017.49 1018.08 1018.45 1018.88 1019.49 1019.96 1020.60 1021.03 1021.24 1020.82 1020.71 1020.91 1020.93 1021.18 1021.61 1021.77 1021.75 1022.06 1021.53 1022.17 1022.41 1022.24 1021.99 1021.33 1020.94 1020.51 1020.05 1019.80 1019.85 1019.64 1019.31 1019.14 1018.16 1016.93 1015.35 1015.68 1015.75 1014.25 1014.43 1014.54 1014.44
1003.77 1005.30 1006.58 1007.68 1008.69 1009.81 1010.82 1011.89 1013.08 1013.94 1014.77 1015.51 1016.45 1017.07 1017.61 1018.17 1018.57 1018.94 1019.83 1020.28 1020.59 1021.17 1020.96 1020.62 1020.38 1020.02 1019.99 1020.22 1020.94 1021.29 1021.41 1021.48 1021.53 1021.91 1021.81 1021.81 1021.32 1020.81 1020.00 1018.73 1017.28 1017.38 1016.64 1016.59 1016.39 1015.42 1014.76 1014.24 1014.30 1014.00 1014.12 1014.23 1013.94 1013.81
1003.08 1004.40 1005.67 1007.04 1007.99 1009.31 1010.30 1011.47 1012.49 1013.45 1014.18 1015.01 1016.01 1016.68 1017.14 1017.71 1018.13 1018.76 1019.62 1020.35 1020.81 1021.31 1020.99 1020.85 1019.79 1018.93 1019.11 1019.39 1019.70 1020.71 1020.59 1020.79 1020.95 1020.90 1021.44 1021.06 1020.61 1019.63 1018.75 1017.54 1016.70 1016.00 1015.61 1015.02 1015.48 1014.54 1014.08 1013.58 1013.60 1013.69 1013.63 1013.57 1013.22 1012.98
1002.31 1003.62 1004.98 1006.31 1007.52 1008.77 1009.94 1011.02 1012.03 1012.90 1013.86 1014.69 1015.68 1016.28 1016.81 1017.34 1017.96 1018.67 1019.38 1020.05 1020.44 1021.02 1021.03 1019.89 1018.94 1019.12 1018.57 1018.91 1019.46 1019.65 1019.68 1020.16 1020.69 1021.16 1021.18 1020.52 1019.75 1018.85 1017.75 1016.87 1016.51 1015.72 1015.12 1014.23 1013.99 1013.58 1013.35 1013.34 1012.99 1012.91 1012.69 1012.57 1012.51 1012.39
1001.43 1003.09 1004.69 1005.97 1007.04 1008.53 1009.63 1010.65 1011.61 1012.57 1013.49 1014.44 1015.37 1015.95 1016.53 1017.18 1017.80 1018.65 1019.36 1019.76 1019.93 1020.50 1020.55 1019.94 1019.21 1018.38 1018.41 1018.72 1019.09 1019.38 1019.67 1020.04 1020.51 1020.39 1019.95 1019.29 1018.36 1018.08 1017.20 1016.72 1015.69 1014.76 1014.22 1014.38 1013.60 1013.09 1012.69 1012.33 1012.14 1012.07 1012.10 1011.91 1011.74 1011.86
1001.11 1002.86 1004.22 1005.51 1006.85 1008.18 1009.37 1010.37 1011.38 1012.33 1013.40 1014.21 1015.07 1015.75 1016.34 1017.06 1018.04 1019.00 1019.64 1019.83 1019.77 1020.00 1020.72 1020.39 1018.95 1019.10 1019.07 1019.13 1019.29 1019.37 1019.46 1019.70 1019.77 1019.40 1018.76 1017.97 1017.48 1017.47 1016.99 1015.72 1014.77 1014.26 1014.22 1013.98 1013.48 1012.87 1012.43 1012.07 1011.91 1011.94 1012.11 1011.98 1011.66 1011.73
1001.05 1002.61 1004.04 1005.52 1006.78 1008.00 1009.03 1010.13 1011.35 1012.44 1013.31 1014.20 1014.95 1015.69 1016.30 1017.17 1018.19 1018.74 1019.07 1019.12 1019.61 1020.15 1020.81 1020.77 1019.82 1019.44 1019.58 1019.68 1019.51 1019.37 1019.30 1019.25 1019.26 1018.83 1017.97 1017.37 1017.06 1016.96 1016.43 1015.39 1015.03 1015.11 1015.39 1014.92 1015.08 1014.24 1013.38 1013.30 1013.87 1014.01 1013.57 1013.02 1012.69 1012.49
1000.84 1002.51 1003.95 1005.32 1006.57 1007.79 1008.89 1010.14 1011.33 1012.30 1013.30 1014.21 1015.01 1015.60 1016.41 1017.46 1018.28 1018.98 1019.45 1019.06 1019.59 1020.47 1021.11 1021.37 1020.56 1019.85 1019.78 1019.82 1019.61 1019.17 1019.17 1018.84 1018.43 1017.73 1016.84 1016.75 1016.46 1016.23 1016.35 1016.36 1016.79 1017.11 1016.75 1016.35 1016.69 1017.03 1016.84 1016.28 1015.63 1015.30 1015.15 1014.65 1014.15 1013.87
1000.87 1002.49 1003.94 1005.20 1006.47 1007.67 1008.82 1010.09 1011.30 1012.35 1013.41 1014.34 1015.31 1016.50 1017.55 1018.17 1018.79 1019.66 1019.75 1019.84 1020.05 1020.81 1021.22 1021.30 1021.02 1020.52 1019.98 1019.67 1019.51 1019.39 1019.04 1018.58 1017.29 1017.15 1016.48 1016.40 1016.26 1016.76 1017.38 1017.81 1018.15 1018.49 1018.96 1018.96 1018.41 1018.08 1017.70 1017.72 1017.38 1016.99 1016.66 1016.13 1015.96 1015.33
1000.91 1002.58 1003.93 1005.24 1006.47 1007.69 1008.80 1010.10 1011.37 1012.55 1013.85 1015.06 1016.30 1017.51 1018.99 1019.78 1019.62 1019.84 1020.36 1020.70 1020.97 1021.10 1021.15 1021.19 1020.71 1020.54 1019.86 1019.71 1019.34 1019.20 1018.82 1018.34 1017.47 1016.46 1016.19 1016.40 1016.54 1017.94 1018.46 1018.94 1019.28 1019.48 1019.79 1020.03 1019.98 1019.10 1018.91 1018.58 1018.65 1018.15 1017.84 1017.54 1017.25 1016.55
1001.18 1002.73 1004.10 1005.31 1006.56 1007.66 1008.92 1010.21 1011.55 1013.03 1014.33 1015.54 1016.99 1018.87 1020.18 1020.11 1020.05 1020.62 1021.62 1022.36 1022.51 1022.65 1021.77 1021.02 1020.67 1020.47 1019.45 1019.81 1019.26 1018.39 1017.97 1017.52 1017.12 1016.33 1016.53 1016.56 1017.21 1018.75 1019.48 1019.72 1019.91 1020.10 1020.30 1020.58 1020.79 1020.64 1020.52 1020.32 1019.69 1018.90 1018.17 1017.82 1017.34 1016.64
1001.65 1002.93 1004.22 1005.45 1006.66 1007.82 1009.28 1010.36 1011.72 1012.83 1014.39 1015.20 1016.93 1018.93 1019.96 1020.45 1021.17 1022.19 1023.10 1024.32 1024.00 1022.89 1021.71 1021.31 1020.95 1020.60 1019.84 1019.32 1019.10 1018.08 1017.83 1017.22 1016.55 1016.63 1017.13 1017.37 1019.01 1019.80 1020.18 1020.43 1020.53 1020.74 1020.81 1020.84 1020.72 1020.68 1020.32 1020.00 1019.63 1019.18 1018.34 1017.52 1016.89 1016.27
1002.02 1003.15 1004.45 1005.73 1006.86 1008.32 1009.58 1010.90 1012.02 1013.30 1014.34 1015.80 1017.17 1019.12 1020.06 1022.01 1022.50 1022.98 1023.46 1023.61 1023.53 1022.26 1021.76 1021.45 1021.16 1020.44 1019.85 1019.69 1018.93 1017.88 1016.85 1016.29 1016.39 1016.89 1017.28 1018.66 1019.88 1020.40 1020.68 1020.80 1020.94 1020.97 1021.06 1021.11 1020.90 1020.71 1020.32 1019.90 1019.31 1018.78 1018.04 1017.46 1016.90 1016.28
1002.41 1003.56 1004.86 1006.07 1007.47 1008.76 1010.08 1011.37 1012.33 1013.22 1014.24 1016.26 1017.93 1019.89 1020.82 1022.04 1022.20 1022.04 1022.32 1022.36 1021.92 1021.70 1021.66 1021.41 1021.01 1020.17 1019.05 1018.94 1018.04 1017.21 1016.41 1016.40 1016.67 1017.28 1018.30 1019.86 1020.66 1020.98 1021.10 1021.31 1021.43 1021.55 1021.68 1021.63 1021.38 1020.96 1020.54 1019.98 1019.18 1018.53 1018.16 1017.76 1017.25 1016.54
1002.89 1004.11 1005.50 1006.96 1008.14 1009.49 1010.81 1011.83 1012.71 1013.67 1015.21 1017.04 1018.20 1019.81 1021.17 1021.10 1021.53 1021.98 1022.49 1022.46 1021.92 1021.82 1021.57 1021.19 1020.66 1020.02 1019.34 1018.97 1018.20 1017.65 1017.41 1017.37 1018.04 1019.36 1020.27 1020.94 1021.37 1021.52 1021.64 1021.78 1021.99 1022.13 1022.07 1021.99 1021.51 1021.23 1020.48 1019.79 1019.20 1018.67 1018.44 1018.09 1017.69 1017.20
1003.74 1005.35 1006.62 1007.74 1008.99 1010.46 1011.68 1012.59 1013.63 1014.94 1016.65 1017.68 1018.87 1019.92 1021.34 1021.85 1022.07 1022.39 1022.59 1022.43 1021.86 1021.56 1021.35 1021.23 1020.52 1019.76 1019.26 1019.09 1018.82 1018.84 1018.91 1019.41 1020.50 1021.24 1021.81 1021.93 1022.01 1022.14 1022.26 1022.36 1022.57 1022.38 1022.32 1022.10 1021.68 1020.99 1020.29 1019.69 1019.27 1018.94 1018.69 1018.49 1018.23 1017.98
1005.08 1006.35 1007.45 1008.54 1010.14 1011.50 1012.27 1013.59 1015.09 1016.20 1017.28 1018.60 1019.73 1020.16 1020.88 1021.48 1021.86 1022.13 1022.16 1022.13 1021.65 1021.70 1021.43 1020.93 1020.69 1019.68 1019.41 1019.29 1019.77 1020.83 1021.50 1022.28 1022.39 1022.51 1022.57 1022.61 1022.54 1022.46 1022.73 1022.77 1022.62 1022.52 1022.40 1022.00 1021.37 1020.71 1020.19 1019.74 1019.35 1019.10 1018.96 1018.87 1018.66 1018.50
1006.16 1007.42 1008.75 1009.79 1010.82 1012.07 1013.96 1014.91 1016.10 1017.20 1018.58 1019.54 1020.29 1021.15 1021.52 1021.79 1022.30 1022.64 1022.57 1022.37 1022.21 1021.75 1021.42 1021.21 1020.88 1020.68 1020.83 1021.54 1021.81 1022.83 1023.22 1023.54 1023.61 1023.42 1023.19 1023.03 1022.71 1022.73 1022.87 1022.87 1022.69 1022.49 1022.19 1021.73 1021.21 1020.68 1020.21 1019.81 1019.62 1019.53 1019.36 1019.25 1019.20 1019.27
1007.08 1008.54 1009.71 1010.32 1010.98 1012.56 1014.89 1016.59 1017.07 1018.32 1019.88 1020.47 1021.24 1021.52 1021.94 1022.57 1022.91 1023.02 1023.06 1022.64 1022.45 1022.14 1022.00 1021.52 1021.79 1022.32 1023.05 1023.61 1023.92 1024.45 1024.54 1024.52 1024.21 1023.74 1023.51 1023.13 1023.06 1022.87 1022.71 1022.64 1022.48 1022.34 1022.05 1021.68 1021.24 1020.90 1020.60 1020.39 1020.25 1020.09 1020.02 1019.92 1019.94 1019.92
1008.71 1009.75 1010.65 1011.17 1011.32 1013.48 1016.03 1017.75 1018.04 1019.10 1020.72 1021.33 1021.59 1022.29 1022.71 1023.21 1023.42 1023.35 1023.24 1023.06 1022.81 1022.78 1022.85 1023.30 1023.93 1024.60 1024.97 1025.30 1025.58 1025.56 1025.56 1025.29 1024.97 1024.33 1023.70 1023.38 1023.21 1023.04 1022.84 1022.61 1022.57 1022.25 1021.90 1021.64 1021.47 1021.17 1021.02 1021.04 1020.95 1020.85 1020.80 1020.81 1020.86 1020.90
1010.28 1011.51 1011.67 1011.93 1013.58 1014.93 1017.31 1018.89 1019.88 1020.82 1021.36 1021.94 1022.58 1022.84 1023.33 1023.40 1023.83 1023.93 1023.91 1023.76 1023.85 1024.79 1024.93 1025.37 1025.58 1025.93 1025.99 1026.09 1026.13 1026.00 1025.87 1025.76 1025.63 1025.24 1024.52 1023.78 1023.49 1023.19 1023.02 1022.86 1022.55 1022.33 1022.11 1021.91 1021.76 1021.81 1021.78 1021.78 1021.78 1021.76 1021.77 1021.85 1021.93 1022.00
1011.45 1011.78 1012.84 1013.43 1015.28 1016.95 1018.82 1020.02 1020.62 1021.38 1021.92 1022.81 1023.00 1023.31 1023.91 1024.25 1024.59 1024.72 1024.70 1024.76 1025.89 1026.64 1026.75 1026.62 1026.70 1026.69 1026.46 1026.27 1026.32 1026.24 1026.13 1025.92 1025.55 1025.32 1024.77 1024.32 1023.99 1023.69 1023.38 1023.15 1022.89 1022.81 1022.70 1022.50 1022.33 1022.40 1022.53 1022.60 1022.66 1022.72 1022.79 1022.93 1022.97 1022.98
1011.91 1012.65 1014.24 1015.48 1017.04 1018.61 1020.96 1020.81 1021.60 1022.18 1022.71 1023.42 1023.61 1024.21 1024.99 1025.17 1025.09 1025.13 1025.77 1026.45 1027.08 1027.43 1027.45 1027.35 1027.28 1027.00 1026.75 1026.42 1026.20 1026.25 1026.28 1026.09 1025.67 1025.51 1025.35 1024.84 1024.53 1024.25 1023.99 1023.79 1023.55 1023.45 1023.44 1023.47 1023.46 1023.49 1023.48 1023.45 1023.49 1023.59 1023.70 1023.83 1023.90 1023.89
1013.43 1015.71 1017.29 1018.47 1019.38 1021.26 1021.84 1022.44 1022.67 1023.31 1023.89 1024.10 1024.66 1025.40 1025.67 1025.95 1025.68 1025.61 1026.56 1027.27 1027.61 1027.70 1027.66 1027.62 1027.44 1027.13 1026.74 1026.66 1026.69 1026.64 1026.58 1026.45 1026.24 1026.01 1026.01 1025.74 1025.17 1024.81 1024.58 1024.46 1024.31 1024.28 1024.32 1024.34 1024.35 1024.39 1024.46 1024.52 1024.54 1024.59 1024.75 1024.95 1025.02 1025.19
1015.75 1019.77 1020.39 1021.44 1021.79 1022.45 1023.50 1024.04 1024.53 1024.63 1025.48 1025.72 1025.79 1026.04 1026.24 1026.48 1026.53 1026.84 1027.42 1027.98 1028.13 1028.06 1028.15 1028.05 1027.85 1027.71 1027.67 1027.44 1027.23 1027.18 1027.16 1027.11 1026.92 1026.75 1026.92 1026.84 1026.48 1025.79 1025.58 1025.32 1025.40 1025.55 1025.21 1025.07 1025.61 1025.61 1025.64 1025.62 1025.71 1025.77 1025.79 1025.82 1026.31 1026.16
1019.20 1022.32 1022.94 1023.38 1023.90 1023.92 1024.98 1025.72 1025.69 1025.93 1026.34 1026.62 1026.75 1026.70 1026.64 1026.84 1027.49 1028.16 1028.42 1028.65 1028.76 1028.66 1028.71 1028.73 1028.74 1028.47 1028.12 1027.94 1027.89 1027.65 1027.69 1027.66 1027.54 1027.47 1027.84 1028.09 1028.03 1027.99 1027.50 1027.14 1026.79 1026.51 1026.28 1026.22 1026.33 1026.53 1026.65 1026.58 1026.66 1026.74 1026.89 1026.77 1026.70 1026.64
1022.08 1024.04 1024.72 1025.19 1025.34 1025.43 1026.35 1026.51 1026.70 1027.10 1027.55 1028.07 1027.82 1027.73 1027.64 1028.51 1028.96 1029.17 1029.18 1029.35 1029.28 1029.12 1029.13 1029.07 1029.05 1029.02 1028.74 1028.51 1028.30 1028.30 1028.07 1028.17 1028.51 1028.61 1028.35 1028.33 1028.35 1028.41 1028.49 1028.19 1027.72 1027.52 1027.08 1026.71 1026.57 1026.88 1026.90 1026.97 1027.00 1026.99 1027.01 1026.90 1026.81 1026.76
1024.61 1025.55 1026.14 1026.74 1026.89 1027.07 1028.09 1028.67 1028.73 1028.98 1029.21 1029.01 1029.08 1029.24 1029.43 1029.53 1030.21 1030.34 1030.15 1030.05 1029.96 1029.64 1029.31 1028.97 1028.84 1028.76 1028.63 1028.49 1028.67 1028.96 1028.73 1028.60 1028.37 1028.32 1028.34 1028.45 1028.54 1028.51 1028.36 1028.17 1027.92 1027.54 1027.16 1026.86 1026.60 1026.40 1026.53 1026.88 1026.93 1026.92 1026.84 1026.76 1026.72 1026.52
1026.35 1026.87 1027.28 1028.46 1028.70 1029.03 1029.73 1030.22 1030.51 1030.52 1030.59 1030.32 1030.48 1030.43 1030.48 1030.63 1031.07 1031.08 1030.98 1030.84 1030.29 1029.89 1029.52 1029.21 1029.09 1029.04 1028.84 1028.75 1028.97 1029.33 1029.58 1029.82 1029.94 1029.64 1029.42 1029.43 1029.34 1029.10 1028.63 1028.37 1028.04 1027.69 1027.40 1027.09 1026.83 1026.54 1026.42 1026.46 1026.53 1026.71 1026.79 1026.66 1026.57 1026.33
1027.69 1027.74 1028.77 1029.65 1030.56 1031.20 1031.34 1031.50 1031.62 1031.79 1031.53 1031.47 1031.51 1031.43 1031.43 1031.33 1031.63 1031.71 1031.76 1031.25 1030.75 1030.31 1030.05 1029.88 1029.74 1029.78 1030.10 1030.11 1030.21 1030.13 1030.24 1030.13 1030.41 1030.38 1030.07 1030.19 1030.08 1029.51 1029.06 1028.73 1028.44 1028.17 1027.85 1027.49 1027.20 1026.83 1026.61 1026.49 1026.49 1026.53 1026.62 1026.72 1026.49 1026.42
1027.95 1028.48 1029.63 1030.72 1031.74 1031.85 1032.00 1031.97 1032.00 1032.06 1032.09 1032.29 1032.29 1032.26 1032.59 1032.27 1031.85 1031.94 1031.96 1031.61 1031.18 1030.64 1030.23 1030.26 1030.35 1030.46 1030.72 1030.92 1031.21 1031.03 1030.78 1030.45 1030.25 1030.09 1029.92 1029.74 1029.54 1029.41 1029.24 1029.04 1028.77 1028.59 1028.20 1027.75 1027.44 1027.36 1027.35 1027.15 1027.07 1026.93 1026.75 1026.58 1026.29 1026.12
1028.38 1029.46 1030.25 1031.83 1032.39 1032.14 1032.15 1032.22 1032.41 1032.40 1032.58 1032.71 1033.02 1032.61 1032.58 1032.66 1032.58 1032.22 1032.24 1031.93 1031.37 1030.93 1030.79 1030.81 1031.07 1031.03 1031.11 1031.17 1031.19 1031.22 1031.23 1031.02 1030.67 1030.26 1029.95 1029.61 1029.49 1029.59 1029.35 1028.98 1028.68 1028.45 1028.17 1027.81 1027.56 1027.47 1027.55 1027.41 1027.13 1026.81 1026.55 1026.24 1025.97 1025.73
1028.77 1029.40 1030.34 1031.59 1032.09 1032.38 1032.28 1032.26 1032.54 1032.49 1032.44 1033.36 1033.44 1033.62 1033.57 1033.43 1033.00 1032.57 1032.26 1032.28 1031.97 1031.56 1031.13 1030.85 1030.88 1031.02 1031.10 1031.04 1031.01 1030.94 1031.07 1030.92 1030.46 1029.30 1028.81 1028.62 1028.65 1028.57 1029.00 1028.89 1028.63 1028.47 1028.13 1027.88 1027.70 1027.56 1027.60 1027.32 1026.87 1026.47 1026.15 1025.86 1025.46 1025.04
Wind_Speed
34 32 31 31 31 28 27 26 25 23 21 20 18 17 17 14 14 7 2 7 4 2 3 6 5 4 2 3 3 4 5 3 2 5 4 5 5 8 10 16 18 13 7 7 8 12 17 10 9 16 17 12 8 8
34 35 34 31 30 28 28 26 26 23 21 21 19 17 16 15 13 11 2 3 2 1 4 2 6 9 13 13 5 4 6 2 4 1 2 3 7 9 18 18 24 19 18 11 11 8 6 8 8 6 6 8 8 10
34 34 32 30 27 27 27 26 25 23 22 21 19 18 16 15 13 9 4 4 3 1 4 2 9 10 11 12 9 4 2 7 4 3 4 3 6 3 11 5 6 6 6 8 10 13 17 14 9 6 6 9 10 12
33 32 31 29 28 27 26 26 25 23 22 21 19 17 15 13 15 10 4 3 3 1 1 7 2 4 5 5 6 8 10 2 1 1 4 5 5 6 5 5 6 8 2 8 11 15 10 13 12 12 11 11 13 11
31 30 30 29 25 25 26 25 26 23 21 21 18 17 14 14 17 6 3 4 3 4 2 4 4 6 3 7 8 7 8 7 3 4 4 6 4 5 4 3 7 12 17 8 11 14 11 13 8 10 10 13 11 9
30 30 27 25 26 27 27 27 25 22 21 18 17 16 14 17 16 3 0 2 2 2 1 3 2 1 3 1 4 5 7 5 5 3 4 4 5 3 4 9 12 15 10 10 14 15 15 14 12 8 9 9 7 6
29 28 26 25 26 25 25 26 24 23 20 17 16 13 16 21 6 3 3 4 9 2 1 4 4 1 3 2 2 3 5 4 3 3 5 7 7 7 7 17 15 8 9 9 12 12 9 7 6 12 12 11 10 6
28 27 26 25 26 25 27 27 27 23 19 16 14 13 18 20 9 3 4 12 8 2 1 2 6 2 3 2 2 1 3 4 4 4 2 2 2 3 6 2 6 8 10 4 14 9 9 11 9 9 9 9 9 7
29 28 26 24 25 24 24 27 26 22 19 16 14 19 6 4 2 2 7 8 3 1 3 3 3 5 0 3 1 2 2 4 2 4 3 3 3 6 2 4 5 5 3 9 14 10 6 7 7 8 9 9 8 9
29 27 26 25 25 24 26 28 26 23 27 24 6 3 3 2 7 5 4 2 2 1 2 3 1 4 2 1 4 1 3 4 3 7 2 3 5 7 6 4 3 4 3 4 6 10 13 13 11 12 8 7 7 10
30 28 26 25 24 24 29 29 28 32 15 3 3 3 1 2 1 2 2 1 1 3 3 4 3 3 2 2 4 3 3 3 4 5 4 3 1 5 6 5 7 6 4 3 5 7 7 9 12 13 13 8 8 9
30 28 26 26 25 28 31 31 32 7 3 7 9 7 3 2 3 3 2 2 1 6 2 3 3 4 4 0 2 3 4 3 6 1 2 3 4 5 4 5 5 4 6 6 4 7 8 9 7 9 11 11 10 10
28 28 27 27 29 32 31 33 22 29 15 4 5 5 3 2 3 6 5 4 2 4 4 2 3 4 1 1 4 4 5 6 2 3 3 4 5 6 7 4 5 5 5 6 8 6 7 8 8 6 9 8 10 10
29 27 27 29 33 32 33 30 30 13 5 4 4 3 4 2 5 5 4 4 3 0 1 2 3 3 3 3 3 5 4 2 4 4 4 3 8 11 7 7 7 7 5 7 8 7 8 8 9 7 5 7 8 7
28 26 31 32 31 32 31 27 14 5 3 4 4 5 4 3 1 0 1 2 3 0 0 2 2 1 1 3 3 4 4 4 3 4 3 7 10 8 10 9 7 6 9 6 6 6 8 7 7 5 6 7 7 6
29 28 16 32 34 32 26 13 6 3 3 4 3 3 1 3 2 1 2 3 1 1 1 1 3 2 3 2 3 3 6 3 4 5 7 8 10 10 10 5 5 4 6 6 6 6 7 5 5 4 4 6 6 6
17 5 29 35 33 27 18 6 3 5 3 3 0 1 2 2 3 1 1 1 1 2 1 2 2 4 3 3 1 3 2 6 8 8 7 9 11 10 5 6 5 5 6 6 4 5 5 4 4 4 5 6 6 7
13 20 38 33 20 10 4 4 4 3 2 1 3 2 1 1 1 2 1 1 1 1 1 1 3 2 3 4 3 2 4 6 6 7 8 9 7 4 4 5 5 5 5 6 5 5 5 5 4 3 4 4 4 5
21 21 30 23 8 6 4 2 2 4 1 2 2 1 2 2 1 1 1 1 1 1 2 1 3 2 2 2 4 5 6 6 9 9 8 6 7 5 5 6 5 4 4 4 5 4 4 6 5 4 3 4 4 4
32 28 19 15 7 4 5 3 2 4 2 2 2 2 2 2 1 0 0 2 1 1 2 2 2 2 2 2 3 5 5 6 7 8 7 7 6 8 6 5 5 5 4 3 4 6 3 3 4 5 5 5 4 5
15 7 10 7 4 7 5 2 4 1 2 3 1 2 1 1 2 2 2 2 3 3 2 2 1 1 3 3 3 4 5 5 5 5 7 8 7 6 5 5 4 4 4 4 4 4 5 4 4 4 4 5 4 4
4 8 4 6 5 4 5 3 3 1 3 2 2 1 2 2 1 2 2 3 3 1 1 2 2 2 4 4 3 3 4 5 6 3 6 6 5 5 6 5 4 4 4 4 4 4 4 4 4 4 4 4 4 3
9 5 5 4 6 6 2 2 4 5 4 2 2 3 2 1 1 1 3 1 1 0 1 2 2 4 5 5 4 2 2 5 5 2 4 5 2 3 3 3 4 4 3 4 4 3 3 5 4 4 4 4 3 4
10 8 6 4 4 1 2 4 2 3 3 4 3 1 2 2 3 2 3 1 1 1 1 3 2 3 3 2 3 3 5 4 4 1 4 5 4 4 4 4 4 4 4 2 2 3 4 3 4 4 4 4 4 3
8 7 5 4 3 5 5 4 5 5 1 1 2 2 3 2 3 3 1 2 1 1 2 3 3 2 1 2 2 3 4 4 4 4 4 5 4 2 1 2 3 3 4 4 4 4 3 3 3 3 4 4 4 4
7 5 3 1 2 4 2 3 1 3 2 2 1 2 2 3 4 1 2 1 1 2 2 2 2 3 2 1 3 3 4 4 4 1 1 3 2 1 3 2 3 4 5 2 2 2 3 3 3 3 3 3 3 1
4 2 2 0 2 3 4 2 1 4 3 1 2 2 3 4 1 3 1 1 2 2 2 2 1 2 3 4 3 2 1 2 2 3 3 2 1 2 2 0 2 4 4 3 2 3 4 2 2 2 2 2 2 1
3 2 4 2 4 1 5 2 2 1 1 2 2 3 3 4 3 2 1 1 2 4 4 4 3 3 3 3 1 2 3 3 4 3 2 2 1 1 2 2 2 4 2 2 1 2 2 3 2 1 1 1 2 2
3 2 4 5 4 5 3 2 2 1 1 2 3 1 2 1 2 1 2 3 4 3 3 3 3 3 3 3 2 2 2 3 4 5 3 3 4 4 3 3 3 3 3 3 3 3 4 3 2 2 1 1 3 2
3 1 5 3 4 1 3 1 1 1 1 2 1 1 2 2 2 1 2 3 3 3 2 3 2 3 3 3 4 4 2 2 2 3 2 1 3 4 3 3 3 4 3 3 3 4 5 4 4 4 3 3 3 3
1 3 5 4 2 3 2 1 0 1 1 1 0 3 2 2 3 1 1 2 3 3 2 4 4 3 3 4 3 4 4 2 3 2 3 3 3 3 3 3 2 2 2 2 2 2 3 3 2 3 4 5 6 4
4 3 4 3 3 4 2 2 0 2 3 3 3 2 3 3 3 4 3 3 3 3 4 3 3 4 2 2 3 3 7 5 5 3 4 2 3 3 3 3 2 2 3 3 3 3 2 3 4 4 5 8 7 7
3 3 3 4 4 4 4 3 5 3 4 3 3 0 0 2 1 4 2 1 1 2 4 3 3 3 3 4 4 4 4 4 6 8 4 1 2 2 2 2 2 3 3 3 3 3 4 4 5 6 7 7 8 8
Wind_Direction
189 189 195 186 187 188 182 192 190 190 188 191 193 197 197 200 201 174 162 169 155 205 250 183 190 202 253 208 201 260 357 262 196 227 233 244 253 267 269 268 261 221 192 213 230 242 252 239 266 223 243 265 258 255
189 190 191 187 185 186 186 187 188 184 187 188 192 198 200 202 208 182 128 154 157 178 249 317 272 254 234 235 228 216 220 140 240 47 279 306 297 288 275 273 264 244 229 220 198 207 218 231 197 243 192 225 252 255
188 187 186 188 184 186 184 186 184 184 185 185 193 197 199 204 198 165 125 138 87 28 282 227 245 252 237 237 225 202 225 215 220 176 264 246 250 251 272 290 295 296 312 246 270 260 256 255 279 245 236 237 248 249
185 184 186 184 183 185 185 185 182 181 183 183 192 197 196 203 179 141 135 161 103 112 234 268 167 230 212 194 205 224 243 322 116 145 240 235 247 205 241 255 229 240 292 234 245 258 276 274 260 267 260 253 244 242
183 184 189 185 178 187 188 183 180 178 179 184 190 193 195 183 172 113 102 171 180 151 260 278 297 256 227 189 213 226 236 238 208 232 216 236 228 252 238 242 243 246 246 248 252 254 240 257 254 241 244 249 243 236
179 182 178 177 181 184 188 185 176 173 175 180 188 190 185 171 130 116 247 179 202 164 253 301 282 303 13 304 232 233 228 229 220 233 228 230 207 213 249 250 250 254 260 244 258 264 265 267 270 265 259 261 257 214
178 172 172 181 182 189 189 171 170 170 173 179 182 179 176 150 142 145 185 156 159 130 76 307 285 198 151 159 238 222 210 227 218 240 225 229 235 225 248 262 269 307 349 344 26 356 308 13 341 342 6 3 356 347
168 167 173 182 183 185 181 169 172 164 165 171 172 178 161 157 100 81 359 148 122 118 126 256 269 325 151 243 257 103 229 193 221 236 278 219 287 206 248 28 27 5 327 10 358 347 293 302 324 352 7 1 351 336
163 166 169 170 174 173 170 164 159 158 160 157 123 97 65 37 87 77 82 80 47 135 195 201 206 272 249 253 253 302 228 253 231 222 231 167 226 226 29 14 18 7 24 318 323 315 350 353 333 339 343 335 327 315
161 160 162 160 162 166 164 154 153 146 125 114 75 98 96 50 108 122 23 56 2 16 282 238 83 256 107 219 281 23 190 233 245 226 153 220 238 96 63 46 18 15 24 356 344 338 338 327 328 317 304 291 269 284
151 152 154 156 160 158 151 147 140 128 104 81 104 78 77 215 98 38 82 95 13 304 234 240 198 220 276 184 243 215 249 252 255 253 177 237 170 81 37 5 353 356 339 288 241 275 280 267 288 301 305 291 284 283
149 151 154 153 151 149 149 146 137 101 105 130 109 103 112 59 53 91 208 1 175 236 274 188 236 198 272 316 233 240 232 223 250 98 238 245 84 57 1 327 321 318 314 310 286 285 278 281 285 288 292 294 298 298
147 150 148 152 148 146 150 140 115 121 108 83 69 77 98 358 83 161 226 274 271 215 234 231 288 210 213 211 248 260 238 240 92 216 218 58 47 2 341 318 309 300 311 308 301 300 296 302 303 277 296 308 311 306
145 141 143 144 143 147 137 132 135 124 84 92 129 138 169 190 240 194 195 198 241 287 155 179 251 222 200 218 246 259 246 278 254 237 60 50 356 335 326 327 321 321 308 305 304 303 305 304 307 306 327 326 323 339
138 140 135 138 144 132 135 132 107 55 92 114 112 185 201 231 218 142 240 353 252 118 299 319 281 302 260 283 262 291 264 258 23 27 353 343 327 321 323 321 320 318 318 311 307 309 305 303 314 324 350 350 354 6
133 121 131 138 131 131 128 105 50 81 60 96 76 89 24 57 243 258 185 260 142 229 17 104 276 308 229 240 254 261 299 4 348 335 327 318 322 323 316 318 305 303 302 303 304 293 303 322 328 334 6 8 12 26
101 95 143 129 124 123 99 77 70 44 109 86 145 38 110 164 187 117 106 76 307 51 283 345 305 243 301 235 212 23 358 319 323 317 313 321 320 318 338 316 319 316 318 307 293 313 321 332 351 19 27 11 24 28
114 127 121 122 117 85 49 40 88 100 105 109 107 193 177 84 75 94 83 353 22 272 308 281 311 302 313 329 351 31 323 319 314 316 318 315 320 329 319 307 303 304 305 310 313 326 358 357 29 31 28 17 26 29
124 125 126 125 99 97 98 50 34 104 115 104 89 48 75 103 75 131 239 293 252 336 337 325 274 8 27 15 318 328 320 320 320 321 312 321 333 340 319 334 320 333 329 336 358 9 19 22 16 22 33 34 39 24
122 123 98 75 69 84 81 22 45 91 115 203 77 62 67 101 174 7 328 18 302 220 32 30 43 57 331 349 320 305 308 314 320 318 321 335 343 336 346 337 340 326 331 351 19 20 36 44 34 37 40 40 52 41
85 70 52 54 51 58 77 47 44 104 140 95 241 72 118 74 50 42 22 318 61 37 38 44 31 54 325 300 283 302 313 328 314 301 308 320 333 338 352 353 348 359 9 15 30 40 41 40 31 33 40 43 41 36
71 84 74 28 71 53 74 352 115 186 73 162 68 40 57 65 44 16 296 58 60 62 347 322 350 325 315 316 320 297 311 308 295 310 324 317 337 348 354 355 0 17 20 17 22 32 36 30 34 33 43 44 38 15
86 58 52 39 74 46 295 17 70 356 85 283 33 60 13 38 260 325 77 87 126 153 282 287 286 271 269 285 300 336 335 326 324 352 335 320 321 327 341 355 1 15 27 25 21 33 31 23 25 31 27 30 36 29
37 50 50 57 60 132 24 18 31 55 36 33 58 44 327 267 310 59 91 80 260 253 325 327 314 331 334 346 9 349 352 334 323 24 9 339 346 358 1 4 10 20 17 10 17 20 24 21 26 33 32 49 33 56
71 357 53 25 360 65 53 20 350 51 91 306 70 343 292 359 70 50 98 269 343 11 14 345 339 357 25 317 333 354 10 355 333 342 28 353 329 294 357 32 36 6 345 20 10 28 8 20 26 36 33 46 49 37
72 325 66 193 329 94 186 94 139 184 125 39 262 252 20 70 62 321 271 286 344 4 6 1 336 328 337 29 329 330 323 343 309 349 15 5 353 329 317 355 350 327 3 360 50 61 24 30 57 71 58 26 20 62
94 14 346 233 117 98 50 29 33 86 77 111 281 20 57 64 301 261 287 344 314 30 339 298 258 258 274 306 308 332 338 61 135 200 244 299 287 202 164 140 320 263 307 336 50 145 165 173 151 153 181 265 230 225
111 72 128 271 49 34 121 71 69 92 270 274 61 46 123 164 220 252 245 338 314 311 292 263 229 227 260 264 295 355 330 338 280 277 306 321 332 343 340 302 289 329 335 345 21 49 94 146 165 199 223 271 295 309
52 343 76 36 26 41 56 114 177 240 286 89 114 151 230 238 225 308 320 315 294 283 305 354 335 336 335 337 57 51 22 20 45 33 33 311 344 325 339 345 344 344 345 351 23 128 139 129 160 172 214 262 263 268
329 42 86 58 82 48 263 140 225 261 22 155 171 2 5 340 261 225 317 339 356 341 310 273 278 29 344 355 324 338 7 63 110 149 153 277 246 272 313 338 342 334 350 23 3 333 352 15 349 7 1 346 340 329
164 57 64 56 112 259 238 250 342 21 31 45 321 108 197 278 315 283 282 275 281 291 339 4 354 29 29 1 2 348 326 297 28 325 244 250 260 267 285 300 301 318 347 359 350 357 346 340 350 333 326 314 301 282
44 76 115 82 306 288 30 59 292 72 344 60 342 9 357 38 24 298 310 353 352 13 12 11 2 305 291 258 251 241 245 285 297 300 305 287 270 273 292 303 316 335 342 341 348 350 343 312 297 288 281 289 292 293
74 70 67 82 26 355 312 69 21 10 28 41 353 310 253 146 159 272 298 184 229 277 316 310 274 280 282 274 255 273 285 257 273 287 263 280 259 315 312 320 329 338 338 330 320 310 302 295 280 286 294 293 293 291